Погода в Атбасаре

Погода в Атбасаре : погода сейчас, прогноз погоды и архив. Всё, что Вы хотите узнать о погоде в Атбасаре!

Хотите узнать прогноз погоды в Атбасаре? Тогда Вам сюда: Погода в Атбасаре

Поиск расширенной информации на нашем сайте:

Полезная информация: Смотрите информацию гта по сети у нас.
гироскутеры xgo

Другие новости

Новости СМИ2

Главная страница сайта

Новости сайта

02.10.2013

Напоминаем, что на нашем новом сайте вы можете получить высокодетализированные прогнозы погоды по пунктам России, СНГ и мира (включающие важные для авиации метеовеличины, такие как направление и скорость ветра, видимость, явления погоды, количество и форма облачности, нижняя и верхняя граница облачности), а также ознакомиться с разнообразными материалами по авиационной метеорологии и подборкой полезных ссылок на эту тему.

Сайт Метеоцентр.Азия посвящён разработке технологий оптимизации авиаметеорологического обслуживания, включая проектирование и перспективное создание нескольких автоматизированных авиаметеорологических систем:
- система выпуска высокодетальных прогностических карт явлений погоды для нижнего воздушного пространства по России и ближнему зарубежью;
- система верификации прогнозов TAF (выпускаемых синоптиками официальных АМСГ РФ и ближнего зарубежья) и AUTOTAF (выпускаемых сайтом Метеоцентр.Азия) - выявление ошибок, онлайн-сопоставление с фактической погодой METAR, автоматическое внесение коррективов в прогнозы при резком отклонении фактической погоды от прогноза, подсчёт оправдываемости прогнозов по элементам и в целом;
- система обработки, анализа и отображения авиаметеорологической информации для применения провайдерами метеорологической информации.

Рекомендуем: Преимущества колесных экскаваторов case.

Погода в Атбасаре - сегодня

Время (UTC), дата Ветер
(°,м/с) 
Видим.   Явления Облачность Т
(°С)
Тd
(°С)
f(%) Тe
(°С)
Pmin
(гПа)
dP
(гПа)
Po
(мм)
O2
(г/м3)
Тmin Tmax R s Состояние
почвы
00 22.03.17 050 (СВ) н/о    ясно 
-16.1 -20 72 -21  1036.9  0.8  747  321           
03 22.03.17 050 (СВ) 20000 м    ясно 
-16.6 -20.5 72 -22  1038.4  1.4  748  322        65  равномерный
мокрый или
старый снег
100% 
06 22.03.17 090 (В) 10  20000 м    ясно 
-5.9 -12.7 59 -12  1036.6  -0.1  748  309  -17.1         
09 22.03.17 090 (В) 20000 м    ясно 
-2.6 -8.7 63 -7  1035.8  -0.3  748  305           
12 22.03.17 090 (В) 20000 м    3/0 верхняя 
[Ci fib]
-1.4 -7.3 64 -6  1034.9  -0.7  747  303           
15 22.03.17 050 (СВ) н/о    4/0 верхняя 
[Ci]
-5.8 -9.7 74 -11  1035.7  0.1  747  309    -0.6       
18 22.03.17 050 (СВ) н/о    ясно 
-8.2 -10.9 81 -14  1035.8  -0.2  747  311    -0.6       
21 22.03.17 090 (В) 10  н/о    ясно 
-7.6 -10.6 79 -14  1034.6  -1.1  746  310           
00 23.03.17 090 (В) н/о    ясно 
-8.4 -11.2 80 -14  1034.1  -0.6  746  311           
03 23.03.17 090 (В) 20000 м    10/4 1000 м средняя 
[Sc|Ac lent]
-7.8 -11.8 73 -13  1033.5  -0.5  746  310        64  равномерный
мокрый или
старый снег
100% 
06 23.03.17 110 (В) 20000 м    8/0 средняя, верхняя 
[Ac lent|Ci sp]
-4.4 -10.4 63 -8  1032.2  -0.7  745  306  -8.8         
09 23.03.17 140 (ЮВ) 20000 м    3/0 верхняя 
[Cc]
-1.9 -7.2 67 -6  1029.7  -2.1  743  302           
12 23.03.17 110 (В) 20000 м    3/0 верхняя 
[Ci sp]
-0.4 -4.8 72 -4  1028.2  -1.2  743  300           
15 23.03.17 090 (В) н/о    9/0 верхняя 
[Ci sp]
-3.2 -5.9 82 -6  1027.7  -0.9  742  303    +0       
18 23.03.17 090 (В) н/о    ясно 
-8.6 -11.4 80 -10  1026.6  -1.8  740  309    +0       
21 23.03.17 090 (В) н/о    ясно 
-8.8 -11.6 80 -10  1024.2  -2.4  739  309           
00 24.03.17 090 (В) н/о    9/9 1000 м 
[Sc]
-10.4 -12.9 82 -14  1022.4  -1.9  737  310           
03 24.03.17 140 (ЮВ) 20000 м    9/4 1000 м средняя, верхняя 
[Sc|Ac trans|Ci fib]
-8.4 -11.2 80 -10  1020.4  -1.7  736  307        65  равномерный
мокрый или
старый снег
100% 
06 24.03.17 140 (ЮВ) 20000 м    9/0 верхняя 
[Cs]
-4 -7.3 78 -5  1017.7  -1.9  735  301  -10.4         
09 24.03.17 тихо ()   20000 м    10/0 верхняя 
[Cs]
-1.2 -5.1 75 -1  1015.6  -1.6  733  297           
12 24.03.17 230 (ЮЗ) 20000 м    10/10 1000 м 
[Sc]
-1.8 -3.5 88 -3  1015.2  -0.5  733  298           
15 24.03.17 270 (З) н/о  слаб. ливневой снег  10/4 600 м кучево-дожд., средняя 
[Cb cap|As op]
-2.4 -3.6 91 -3  1016.1  0.8  734  299    -0.1  0.2     
18 24.03.17 270 (З) н/о  {ливн. осадки}  10/10 600 м 
[Sc]
-2.2 -4 87 -5  1016.8  0.7  734  299    -0.1  0.2     
21 24.03.17 270 (З) н/о    ясно 
-4.4 -6.7 84 -8  1018.2  735  302           
00 25.03.17 270 (З) н/о    6/6 600 м 
[Cu hum]
-5.6 -8.2 82 -9  1019.8  1.4  736  304           
Время (UTC), дата Ветер
(°,м/с) 
Видим.   Явления Облачность Т
(°С)
Тd
(°С)
f(%) Тe
(°С)
Pmin
(гПа)
dP
(гПа)
Po
(мм)
O2
(г/м3)
Тmin Tmax R s Состояние
почвы

Для получения пояснительной информации подведите курсор к названию столбца.

ПОГОДА в Атбасаре - архив

Всё, что Вы хотите узнать о погоде в Атбасаре - удобно и подробно!

Выберите нужную дату (начиная с 1 января 2015* года) и нажмите кнопку "Найти".
Будут отображены архивные сводки погоды по пункту Атбасар, начиная с указанной даты.


Отображать данные в формате CSV (для использования в таблицах Excel)


Внимание! Наш архив погоды предназначен исключительно для личного некоммерческого использования в познавательных целях. Если Вам необходимы официальные справки о состоянии погоды (для производственных, юридических, коммерческих и т.п. целей), обращайтесь в органы Росгидромета.

*Примечание: данная дата относится к архиву по метеостанциям СССР (Россия, СНГ, Балтия).
Архив по метеостанциям Зарубежной Европы и Азии (кроме Китая) хранится 10 дней, по другим регионам земного шара (Китай, Африка, Америка, Австралия, Океания) - 1 день.

Атбасар - район местоположения метеостанции


Название, широта, долгота, высота метеостанции:
Атбасар 51.8°ш. 68.4°д. 304 м над ур. моря [Казахстан]

Дополнительная информация

В oтличие oт бoльшинства пoгoдных сайтoв мы публикуем пoдрoбную метеoинфoрмацию в детальнoм прoфессиoнальнoм фoрмате.

Характеристики температуры и влажнoсти вoздуха измеряются на высoте 2 м в тени вдали oт зданий и деревьев.
Скoрoсть ветра измеряется на высoте 10 м (на урoвне рoста челoвека скoрoсть ветра ниже в 1.5-2 раза). Если метеoстанция нахoдится в гoрoде или в лесу, тo скoрoсть ветра занижена на 2-4 м/с пo сравнению с oткрытым местoм. Скoрoсть ветра над акватoриями крупных рек и oзёр, а также на вершинах хoлмoв на 2-5 м/с выше, чем в oбычных услoвиях.
Атмoсфернoе давление в разных тoчках местнoсти мoжет значительнo oтличаться oт давления на метеoстанции, в зависимoсти oт услoвий рельефа (при пoдъёме на 10 м давление пoнижается примернo на 1 мм рт.ст.).